Weather History for KALS - August, 2014

Change the Weather History Date:

Sunday, August 24, 2014

  Actual Average Record
Temperature  
Mean Temperature 60 °F 62 °F  
Max Temperature 79 °F 79 °F 89 °F (2011)
Min Temperature 40 °F 45 °F 33 °F (2002)
Degree Days  
Heating Degree Days 5 4  
Month to date heating degree days 63 54  
Since 1 June heating degree days 211 267  
Since 1 July heating degree days 85 99  
Cooling Degree Days 0 0  
Month to date cooling degree days 3 12  
Year to date cooling degree days 60 50  
Since 1 June cooling degree days 60 50  
Growing Degree Days 10 (Base 50)    
Moisture  
Dew Point 41 °F    
Average Humidity 58    
Maximum Humidity 93    
Minimum Humidity 23    
Precipitation  
Precipitation 0.00 in 0.04 in 1.08 in (1992)
Month to date precipitation 0.51 0.98  
Year to date precipitation 3.86 4.66  
Snow  
Snow 0.00 in 0.00 in 0.00 in (2002)
Month to date snowfall 0.0 0.0  
Since 1 June snowfall 0.0 0.0  
Since 1 July snowfall 0.0 0.0  
Snow Depth 0.00 in    
Sea Level Pressure  
Sea Level Pressure 30.02 in    
Wind  
Wind Speed 6 mph (SSW)    
Max Wind Speed 20 mph    
Max Gust Speed 25 mph    
Visibility 10 miles    
Events      
T = Trace of Precipitation, MM = Missing Value Source: NWS Daily Summary

Daily Weather History Graph

Daily Weather History Graph

Search for Another Location

Airport or City:

Trip Planner

Search our weather history database for the weather conditions in past years. The results will help you decide how hot, cold, wet, or windy it might be!

Date:

Astronomy

Aug. 24, 2014 Rise Set
Actual Time 6:27 AM MDT 7:43 PM MDT
Civil Twilight 5:59 AM MDT 8:10 PM MDT
Nautical Twilight 5:27 AM MDT 8:43 PM MDT
Astronomical Twilight 4:53 AM MDT 9:17 PM MDT
Moon 5:40 AM MDT (8/24) 7:04 PM MDT (8/24)
Length of Visible Light 14h 10m
Length of Day
13h 16m
Waning Crescent, 1% of the Moon is Illuminated
Aug 24
Waning Crescent
Aug 25
New
Sep 2
First Quarter
Sep 8
Full
Sep 15
Last Quarter

Hourly Weather History & Observations

Time (MDT) Temp. Windchill Dew Point Humidity Pressure Visibility Wind Dir Wind Speed Gust Speed Precip Events Conditions
12:52 AM 46.9 °F - 43.0 °F 86% 29.99 in 10.0 mi North 3.5 mph - N/A   Clear
1:52 AM 46.0 °F 44.8 °F 42.1 °F 86% 29.98 in 10.0 mi WSW 3.5 mph - N/A   Clear
2:52 AM 44.6 °F 43.1 °F 41.0 °F 87% 30.22 in 10.0 mi West 3.5 mph - N/A   Clear
3:52 AM 44.1 °F - 41.0 °F 89% 29.98 in 10.0 mi Calm Calm - N/A   Clear
4:52 AM 41.0 °F 39.0 °F 39.0 °F 93% 30.01 in 10.0 mi SSW 3.5 mph - N/A   Clear
5:52 AM 42.1 °F - 39.0 °F 89% 30.01 in 10.0 mi Calm Calm - N/A   Clear
6:52 AM 41.0 °F 39.0 °F 39.0 °F 93% 30.04 in 10.0 mi ENE 3.5 mph - N/A   Clear
7:52 AM 46.0 °F - 42.1 °F 86% 30.07 in 10.0 mi Calm Calm - N/A   Clear
8:52 AM 54.0 °F - 43.0 °F 66% 30.05 in 10.0 mi Calm Calm - N/A   Clear
9:52 AM 60.1 °F - 45.0 °F 57% 30.04 in 10.0 mi Variable 3.5 mph - N/A   Clear
10:52 AM 63.0 °F - 44.1 °F 50% 30.05 in 10.0 mi ESE 5.8 mph - N/A   Partly Cloudy
11:52 AM 68.0 °F - 45.0 °F 43% 30.02 in 10.0 mi Variable 3.5 mph - N/A   Clear
12:52 PM 73.0 °F - 43.0 °F 34% 29.98 in 10.0 mi South 11.5 mph - N/A   Clear
1:52 PM 73.9 °F - 39.9 °F 29% 29.96 in 10.0 mi South 12.7 mph 19.6 mph N/A   Clear
2:52 PM 77.0 °F - 39.0 °F 25% 29.94 in 10.0 mi South 8.1 mph - N/A   Clear
3:52 PM 75.0 °F - 37.0 °F 25% 29.93 in 10.0 mi SSW 9.2 mph 18.4 mph N/A   Scattered Clouds
4:52 PM 78.1 °F - 37.0 °F 23% 29.93 in 10.0 mi SW 11.5 mph 19.6 mph N/A   Scattered Clouds
5:52 PM 75.9 °F - 36.0 °F 23% 29.94 in 10.0 mi SSW 15.0 mph - N/A   Clear
6:52 PM 73.9 °F - 39.0 °F 28% 29.94 in 10.0 mi SSW 9.2 mph - N/A   Scattered Clouds
7:52 PM 66.2 °F - 42.8 °F 43% 30.18 in 10.0 mi SW 9.2 mph - N/A   Clear
8:52 PM 59.0 °F - 44.6 °F 59% 30.21 in 10.0 mi WSW 9.2 mph - N/A   Clear
9:52 PM 55.9 °F - 43.0 °F 62% 29.99 in 10.0 mi SW 8.1 mph - N/A   Clear
11:52 PM 52.0 °F - 42.1 °F 69% 30.00 in 10.0 mi Variable 5.8 mph - N/A   Clear